TimeCDT,TemperatureF,Dew PointF,Humidity,Sea Level PressureIn,VisibilityMPH,Wind Direction,Wind SpeedMPH,Gust SpeedMPH,PrecipitationIn,Events,Conditions,WindDirDegrees,DateUTC
12:53 AM,50.0,43.0,77,30.06,10.0,East,15.0,-,N/A,,Overcast,100,2013-10-14 05:53:00
1:53 AM,51.1,45.0,80,30.03,10.0,ESE,11.5,-,N/A,,Overcast,110,2013-10-14 06:53:00
2:53 AM,55.0,48.0,77,30.00,10.0,SE,17.3,27.6,N/A,,Overcast,140,2013-10-14 07:53:00
3:53 AM,55.0,50.0,83,29.96,10.0,SE,13.8,23.0,N/A,,Overcast,140,2013-10-14 08:53:00
4:46 AM,55.4,51.8,88,29.96,10.0,SSE,15.0,24.2,N/A,,Overcast,150,2013-10-14 09:46:00
4:53 AM,55.0,51.1,86,29.93,10.0,SSE,13.8,23.0,N/A,,Overcast,150,2013-10-14 09:53:00
5:18 AM,55.4,51.8,88,29.96,7.0,SSE,11.5,21.9,0.00,Rain,Light Rain,150,2013-10-14 10:18:00
5:53 AM,55.0,53.1,93,29.91,5.0,SSE,11.5,-,0.00,Rain,Light Rain,150,2013-10-14 10:53:00
6:39 AM,55.4,53.6,94,29.93,2.5,SE,8.1,-,0.01,Rain,Light Rain,140,2013-10-14 11:39:00
6:53 AM,55.0,54.0,96,29.90,3.0,SE,8.1,-,0.04,Rain,Light Rain,140,2013-10-14 11:53:00
7:44 AM,55.4,53.6,94,29.89,2.5,SE,8.1,-,0.03,Rain,Light Rain,140,2013-10-14 12:44:00
7:53 AM,55.0,53.1,93,29.87,3.0,SE,9.2,-,0.04,Rain,Light Rain,140,2013-10-14 12:53:00
8:21 AM,53.6,51.8,94,29.87,9.0,SE,10.4,-,0.03,Rain-Thunderstorm,Light Rain,130,2013-10-14 13:21:00
8:36 AM,53.6,51.8,94,29.87,9.0,SE,9.2,18.4,0.04,Rain,Light Rain,130,2013-10-14 13:36:00
8:53 AM,54.0,52.0,93,29.84,5.0,SE,12.7,-,0.05,Rain,Light Rain,130,2013-10-14 13:53:00
9:20 AM,53.6,53.6,100,29.83,2.5,ESE,13.8,-,0.06,Rain,Rain,120,2013-10-14 14:20:00
9:27 AM,53.6,51.8,94,29.84,4.0,ESE,13.8,-,0.08,Rain,Rain,120,2013-10-14 14:27:00
9:53 AM,54.0,52.0,93,29.81,2.5,ESE,15.0,-,0.11,Rain-Thunderstorm,Rain,110,2013-10-14 14:53:00
9:59 AM,53.6,51.8,94,29.82,1.2,ESE,13.8,-,0.04,Rain-Thunderstorm,Heavy Rain,110,2013-10-14 14:59:00
10:08 AM,53.6,51.8,94,29.81,1.5,ESE,15.0,-,0.14,Rain,Light Rain,110,2013-10-14 15:08:00
10:10 AM,53.6,51.8,94,29.81,3.0,ESE,13.8,-,0.15,Rain,Light Rain,120,2013-10-14 15:10:00
10:45 AM,53.6,51.8,94,29.79,2.5,ESE,11.5,-,0.17,Rain,Rain,110,2013-10-14 15:45:00
10:53 AM,53.1,52.0,96,29.78,2.5,ESE,12.7,-,0.19,Rain,Light Rain,110,2013-10-14 15:53:00
11:00 AM,53.6,53.6,100,29.79,5.0,ESE,9.2,-,0.00,Rain,Light Rain,120,2013-10-14 16:00:00
11:22 AM,55.4,53.6,94,29.78,8.0,ESE,10.4,-,0.00,,Overcast,120,2013-10-14 16:22:00
11:53 AM,57.9,55.9,93,29.73,10.0,South,6.9,-,0.00,,Overcast,180,2013-10-14 16:53:00
12:00 PM,59.0,55.4,88,29.74,10.0,SSE,10.4,-,N/A,,Overcast,160,2013-10-14 17:00:00
12:09 PM,59.0,55.4,88,29.73,10.0,SSE,9.2,-,N/A,,Mostly Cloudy,160,2013-10-14 17:09:00
12:37 PM,60.8,57.2,88,29.72,9.0,SSE,6.9,-,0.00,Rain-Thunderstorm,Light Rain,160,2013-10-14 17:37:00
12:53 PM,59.0,57.0,93,29.70,5.0,SSW,9.2,-,0.01,Rain-Thunderstorm,Rain,210,2013-10-14 17:53:00
1:04 PM,57.2,51.8,82,29.73,2.5,SW,21.9,35.7,0.03,Rain-Thunderstorm,Rain,220,2013-10-14 18:04:00
1:11 PM,57.2,50.0,77,29.71,3.0,SW,19.6,33.4,0.05,Rain-Thunderstorm,Rain,220,2013-10-14 18:11:00
1:25 PM,57.2,48.2,72,29.69,10.0,SW,6.9,20.7,0.06,Rain,Light Rain,220,2013-10-14 18:25:00
1:53 PM,61.0,52.0,72,29.64,10.0,SE,5.8,-,0.06,,Mostly Cloudy,130,2013-10-14 18:53:00
2:53 PM,64.0,55.0,73,29.58,10.0,SE,11.5,-,N/A,,Partly Cloudy,130,2013-10-14 19:53:00
3:12 PM,62.6,55.4,77,29.61,10.0,ESE,15.0,-,0.01,Rain-Thunderstorm,Light Thunderstorms and Rain,110,2013-10-14 20:12:00
3:27 PM,55.4,51.8,88,29.70,1.2,WNW,35.7,46.0,0.02,Rain-Thunderstorm,Heavy Thunderstorms and Rain,300,2013-10-14 20:27:00
3:30 PM,51.8,48.2,88,29.73,0.5,NW,23.0,46.0,0.04,Fog-Rain-Thunderstorm,Heavy Thunderstorms and Rain,310,2013-10-14 20:30:00
3:32 PM,51.8,48.2,88,29.73,0.2,NW,24.2,46.0,0.14,Fog-Rain-Thunderstorm,Heavy Thunderstorms and Rain,310,2013-10-14 20:32:00
3:36 PM,51.8,50.0,94,29.73,0.2,WNW,23.0,43.7,0.48,Fog-Rain-Thunderstorm,Heavy Thunderstorms and Rain,300,2013-10-14 20:36:00
3:39 PM,53.6,50.0,88,29.72,0.5,NW,19.6,43.7,0.57,Fog-Rain-Thunderstorm,Heavy Thunderstorms and Rain,320,2013-10-14 20:39:00
3:46 PM,55.4,51.8,88,29.73,1.8,WNW,17.3,27.6,0.66,Rain-Thunderstorm,Thunderstorms and Rain,300,2013-10-14 20:46:00
3:48 PM,55.4,51.8,88,29.73,3.0,WNW,18.4,24.2,0.67,Rain-Thunderstorm,Light Thunderstorms and Rain,300,2013-10-14 20:48:00
3:53 PM,54.0,50.0,86,29.72,5.0,NW,19.6,29.9,0.67,Rain-Thunderstorm,Thunderstorms and Rain,310,2013-10-14 20:53:00
4:03 PM,53.6,51.8,94,29.70,4.0,NNW,20.7,-,0.03,Rain,Rain,330,2013-10-14 21:03:00
4:53 PM,53.1,48.0,83,29.71,10.0,NW,25.3,33.4,0.04,,Mostly Cloudy,310,2013-10-14 21:53:00
5:53 PM,50.0,44.1,80,29.79,10.0,WNW,25.3,36.8,N/A,,Overcast,300,2013-10-14 22:53:00
6:53 PM,48.9,42.1,77,29.84,10.0,WNW,24.2,32.2,N/A,,Overcast,300,2013-10-14 23:53:00
7:53 PM,46.9,39.0,74,29.88,10.0,NW,19.6,32.2,N/A,,Overcast,310,2013-10-15 00:53:00
8:11 PM,46.4,39.2,76,29.90,10.0,WNW,23.0,34.5,N/A,,Overcast,300,2013-10-15 01:11:00
8:53 PM,44.1,37.0,76,29.92,10.0,WNW,17.3,27.6,N/A,,Scattered Clouds,300,2013-10-15 01:53:00
9:53 PM,44.1,36.0,73,29.95,10.0,NW,16.1,27.6,N/A,,Mostly Cloudy,310,2013-10-15 02:53:00
10:01 PM,44.6,37.4,76,29.95,10.0,NW,13.8,-,N/A,,Mostly Cloudy,310,2013-10-15 03:01:00
10:53 PM,44.1,36.0,73,29.98,10.0,WNW,20.7,27.6,N/A,,Overcast,290,2013-10-15 03:53:00
11:53 PM,43.0,35.1,74,29.98,10.0,WNW,21.9,35.7,N/A,,Overcast,300,2013-10-15 04:53:00